SCP
0 0 0 0 0 0 0 0 0 0 0 0 0 0 0 0 0 0 0 1 1 1 1 1 2 2 2 1 1 1 1 1 1 1 1 0 0 0 0 0 0 0 0 0 0 0 0 0 0
0 0 0 0 0 0 0 0 0 0 0 0 0 0 0 0 0 0 0 1 1 1 1 1 2 2 2 1 1 1 1 1 1 1 0 0 0 0 0 0 0 0 0 0 0 0 0 0 0
0 0 0 0 0 0 0 0 0 0 0 0 0 0 0 0 0 0 1 1 1 1 1 1 2 2 2 1 1 1 1 1 1 0 0 0 0 0 0 0 0 0 0 0 0 0 0 0 0
0 0 0 0 0 0 0 0 0 0 0 0 0 0 0 0 0 0 1 1 1 1 1 1 2 2 2 1 1 1 1 1 0 0 0 0 0 0 0 0 0 0 0 0 0 0 0 0 0
0 0 0 0 0 0 0 0 0 0 0 0 0 0 0 0 0 0 1 1 1 1 1 1 2 2 2 1 1 1 1 0 0 0 0 0 0 0 0 0 0 0 0 0 0 0 0 0 0
0 0 0 0 0 0 0 0 0 0 0 0 0 0 0 0 0 1 1 1 1 1 1 1 2 2 2 1 1 1 1 0 0 0 0 0 0 0 0 0 0 0 0 0 0 0 0 0 0
0 0 0 0 0 0 0 0 0 0 0 0 0 0 0 0 0 1 1 1 1 1 1 1 2 2 1 1 1 1 0 0 0 0 0 0 0 0 0 0 0 0 0 0 0 0 0 0 0
0 0 0 0 0 0 0 0 0 0 0 0 0 0 0 0 1 1 1 1 1 1 1 2 1 1 1 1 1 0 0 0 0 0 0 0 0 0 0 0 0 0 0 0 0 0 0 0 0
1 1 0 0 0 0 0 0 0 0 0 0 0 0 0 0 0 0 1 1 1 1 2 2 1 1 0 0 0 0 0 0 0 0 0 0 0 0 0 0 0 0 0 0 0 0 0 0 0
1 0 0 0 0 0 0 0 0 0 0 0 0 0 0 0 0 0 1 1 1 1 2 2 1 1 0 0 0 0 0 0 0 0 0 0 0 0 0 0 0 0 0 0 0 0 0 0 0
0 0 0 0 0 0 0 0 0 0 0 0 0 0 0 0 0 0 1 1 1 1 2 2 2 1 1 0 0 0 0 0 0 0 0 0 0 0 0 0 0 0 0 0 0 0 0 0 0
0 0 0 0 0 0 0 0 0 0 0 0 0 0 0 0 0 0 1 1 1 1 2 2 2 1 1 0 0 0 0 0 0 0 0 0 0 0 0 0 0 0 0 0 0 0 0 0 0
0 0 0 0 0 0 0 0 0 0 0 0 0 0 0 0 0 0 0 1 1 1 2 2 2 1 1 1 0 0 0 0 0 0 0 0 0 0 0 0 0 0 0 0 0 0 0 0 0
0 0 0 0 0 0 0 0 0 0 0 0 0 0 0 0 0 0 0 0 1 1 2 2 2 1 1 1 1 0 0 0 0 0 0 0 0 0 0 0 0 0 0 0 0 0 0 0 0
0 0 0 0 0 0 0 0 0 0 0 0 0 0 0 0 0 0 0 0 0 1 2 2 2 2 2 1 1 0 0 0 0 0 0 0 0 0 0 0 0 0 0 0 0 0 0 0 0
0 0 0 0 0 0 0 0 0 0 0 0 0 0 0 0 0 0 0 0 0 1 1 2 3 2 2 1 1 0 0 0 0 0 0 0 0 0 0 0 0 0 0 0 0 0 0 0 0
0 0 0 0 0 0 0 0 0 0 0 0 0 0 0 0 0 0 0 0 0 0 1 2 2 2 2 1 1 0 0 0 0 0 0 0 0 0 0 0 0 0 0 0 0 0 0 0 0
0 0 0 0 0 0 0 0 0 0 0 0 0 0 0 0 0 0 0 0 0 0 1 1 2 2 2 1 1 0 0 0 0 0 0 0 0 0 0 0 0 0 0 0 0 0 0 0 0
0 0 0 0 0 0 0 0 0 0 0 0 0 0 0 0 0 0 0 0 0 0 0 1 1 2 2 1 1 0 0 0 0 0 0 0 0 0 0 0 0 0 0 0 0 0 0 0 0
0 0 0 0 0 0 0 0 0 0 0 0 0 0 0 0 0 0 0 0 0 0 0 1 1 1 1 1 0 0 0 0 0 0 0 0 0 0 0 0 0 0 0 0 0 0 0 0 0
0 0 0 0 0 0 0 0 0 0 0 0 0 0 0 0 0 0 0 0 0 0 0 0 1 1 1 1 1 0 0 0 0 0 0 0 0 0 0 0 0 0 0 0 0 0 0 0 0
0 0 0 0 0 0 0 0 0 0 0 0 0 0 0 0 0 0 0 0 0 0 0 0 1 1 1 1 1 0 0 0 0 0 0 0 0 0 0 0 0 0 0 0 0 0 0 0 0
0 0 0 0 0 0 0 0 0 0 0 0 0 0 0 0 0 0 0 0 0 0 0 0 1 1 1 1 1 0 0 0 0 0 0 0 0 0 0 0 0 0 0 0 0 0 0 0 0
0 0 0 0 0 0 0 0 0 0 0 0 0 0 0 0 0 0 0 0 0 0 0 1 1 1 1 1 1 0 0 0 0 0 0 0 0 0 0 0 0 0 0 0 0 0 0 0 0
0 0 0 0 0 0 0 0 0 0 0 0 0 0 0 0 0 0 0 0 0 0 0 1 1 1 1 1 1 0 0 0 0 0 0 0 0 0 0 0 0 0 0 0 0 0 0 0 0
0 0 0 0 0 0 0 0 0 0 0 0 0 0 0 0 0 0 0 0 0 0 0 0 1 1 1 1 1 0 0 0 0 0 0 0 0 0 0 0 0 0 0 0 0 0 0 0 0
0 0 0 0 0 0 0 0 0 0 0 0 0 0 0 0 0 0 0 0 0 0 0 0 1 1 1 1 0 0 0 0 0 0 0 0 0 0 0 0 0 0 0 0 0 0 0 0 0
0 0 0 0 0 0 0 0 0 0 0 0 0 0 0 0 0 0 0 0 0 0 0 0 1 1 1 1 0 0 0 0 0 0 0 0 0 0 0 0 0 0 0 0 0 0 0 0 0
0 0 0 0 0 0 0 0 0 0 0 0 0 0 0 0 0 0 0 0 0 0 0 0 1 1 1 0 0 0 0 0 0 0 0 0 0 0 0 0 0 0 0 0 0 0 0 0 0
0 0 0 0 0 0 0 0 0 0 0 0 0 0 0 0 0 0 0 0 0 0 0 0 0 1 1 0 0 0 0 0 0 0 0 0 0 0 0 0 0 0 0 0 0 0 0 0 0
Wind_Speed
8 10 9 3 4 6 12 11 11 9 6 3 1 1 2 2 2 6 6 10 16 18 18 19 20 19 18 18 17 16 16 16 15 15 15 15 15 15 15 15 15 15 15 15 15 15 15 15 15
9 10 6 4 6 9 11 14 15 9 3 3 3 1 1 4 7 10 7 13 18 19 17 17 20 20 19 18 18 17 16 16 15 15 15 15 15 14 14 14 15 15 15 14 14 14 14 14 14
12 11 5 5 8 11 9 9 10 6 2 3 1 1 1 4 8 8 10 16 17 17 16 18 21 20 20 19 18 17 16 16 15 15 15 14 14 14 14 14 14 14 14 14 13 14 13 14 13
7 5 5 9 15 15 14 11 2 2 3 4 4 2 2 4 5 9 14 16 16 16 16 18 21 20 20 19 18 17 16 16 15 15 14 14 14 14 13 13 13 13 13 13 13 13 13 12 12
6 5 9 12 17 16 14 11 3 3 4 5 7 4 4 5 11 14 14 15 16 16 16 17 20 21 20 19 18 17 16 16 15 15 14 14 14 13 13 13 12 12 12 12 12 12 12 12 11
5 5 10 14 17 17 15 11 6 6 5 6 7 5 4 7 10 12 12 13 14 16 16 16 20 20 19 19 18 17 16 16 15 15 14 14 13 13 12 12 11 11 11 11 11 11 11 11 10
8 8 14 16 14 14 13 10 9 7 7 8 7 6 6 9 10 11 11 13 14 15 15 13 13 15 18 18 17 17 16 16 15 15 14 14 13 12 12 11 10 10 10 10 10 10 10 9 9
8 7 14 17 16 14 11 8 7 7 7 7 6 6 8 12 12 10 10 11 13 14 15 14 13 12 11 11 15 15 15 15 15 14 13 12 12 11 11 10 10 10 9 9 9 9 8 7 6
9 11 16 16 14 11 9 7 6 4 4 4 2 1 11 19 15 12 10 10 11 13 13 14 13 13 12 11 13 13 13 13 13 12 13 11 6 6 7 9 10 9 9 8 8 6 6 5 3
9 14 21 16 13 10 9 6 5 5 6 5 3 9 15 16 15 15 14 14 14 14 14 13 13 13 12 11 10 7 8 8 7 7 7 5 5 5 8 10 9 9 8 7 6 5 4 3 2
12 17 16 18 17 13 10 7 6 7 7 8 9 14 15 15 13 14 14 14 14 13 13 13 13 13 12 9 9 6 5 6 6 9 8 5 5 5 6 4 5 4 5 3 4 3 2 2 2
16 18 18 18 15 12 11 9 9 9 8 6 9 16 17 16 16 15 15 14 13 13 12 13 12 12 11 10 8 7 6 6 5 7 8 5 4 4 5 4 4 4 3 3 3 2 2 2 2
22 21 20 18 15 12 12 13 10 11 8 6 6 13 17 17 15 13 12 13 12 13 13 13 13 12 11 10 8 8 7 7 6 6 6 6 5 4 4 4 4 4 3 3 2 2 3 2 2
15 17 19 18 17 15 14 14 13 12 8 7 7 11 14 16 15 14 13 14 15 14 14 13 13 13 11 9 7 7 7 7 7 6 6 7 6 5 4 4 4 3 3 3 2 2 3 2 2
17 17 18 18 17 16 13 17 18 13 9 9 9 10 12 13 14 15 15 15 16 16 15 14 13 13 12 10 9 7 6 7 6 6 7 7 6 6 5 4 4 3 3 3 2 2 2 2 1
12 15 18 18 17 16 15 18 15 13 13 13 11 11 11 12 14 13 14 13 15 16 16 15 13 13 13 10 9 6 7 7 6 6 6 7 7 7 5 4 4 4 3 3 2 2 2 2 1
11 15 19 17 17 16 17 16 12 13 15 14 13 13 13 12 13 13 14 14 15 17 17 16 14 14 13 11 8 7 7 7 6 6 6 7 8 8 6 4 4 5 3 3 3 2 2 2 1
14 16 17 18 14 17 20 18 13 13 14 15 14 14 13 14 14 13 14 14 14 15 16 17 15 13 12 10 8 6 6 6 6 6 7 9 7 8 6 5 5 5 4 3 3 3 2 2 2
15 16 17 16 14 16 18 19 17 15 13 13 13 13 13 14 14 13 14 14 14 14 16 17 16 15 12 11 10 9 8 7 6 6 8 9 8 8 7 5 6 5 5 5 5 3 3 2 2
18 18 18 14 13 12 14 17 15 14 15 13 12 12 13 12 13 14 14 14 15 16 16 17 18 16 15 12 10 8 7 6 5 5 7 9 9 9 8 7 6 6 5 5 5 4 3 2 3
19 18 17 14 10 11 10 15 17 15 15 14 14 13 12 12 13 13 14 14 14 15 17 17 18 17 16 13 9 7 7 5 6 7 7 8 9 9 9 8 7 6 6 5 5 5 5 3 3
17 16 16 14 10 8 9 9 14 15 16 17 16 14 13 12 12 12 13 14 15 14 15 16 17 17 16 15 13 14 12 10 10 9 7 8 9 9 9 9 8 7 6 6 6 5 4 5 3
12 10 12 12 10 10 10 10 9 14 18 19 17 16 15 13 12 12 13 14 14 14 14 14 16 16 16 16 15 15 11 8 6 7 9 9 8 9 9 9 8 8 6 6 6 6 5 4 4
9 7 7 8 6 13 16 13 9 12 18 17 18 17 16 14 13 12 11 12 12 13 13 13 15 15 16 17 16 16 14 12 11 11 11 10 7 8 10 10 9 8 7 7 7 6 7 5 5
8 6 5 6 8 11 12 13 11 10 13 14 14 14 14 13 12 11 11 11 12 14 14 14 15 15 16 17 17 17 15 14 14 13 12 10 8 8 11 10 9 8 7 7 7 6 6 6 5
9 10 7 6 7 7 10 13 9 11 9 9 10 10 11 12 12 11 11 11 11 14 15 15 16 15 16 17 16 15 14 11 9 11 10 11 9 9 10 10 9 9 8 8 7 5 6 5 5
9 11 7 5 5 6 7 8 9 9 9 8 8 9 10 10 10 10 10 10 11 12 14 15 15 14 14 15 15 14 14 12 10 10 9 9 7 8 10 10 9 9 8 8 7 5 6 5 5
9 7 5 6 5 6 7 11 8 11 11 10 10 9 9 8 8 9 9 10 10 11 11 12 13 13 13 14 13 11 13 12 10 9 10 10 9 9 10 10 9 9 8 8 7 6 5 6 5
7 7 5 5 6 5 5 6 7 9 12 12 11 10 10 9 9 8 8 8 9 9 10 11 12 11 12 13 12 11 11 11 10 9 9 9 9 10 10 10 10 9 9 8 7 6 6 6 5
5 6 6 5 5 6 5 6 4 2 5 7 9 8 8 8 8 8 8 8 8 9 10 10 11 11 11 11 11 11 11 11 10 9 9 9 9 9 10 10 9 9 8 8 8 8 7 7 6
Wind_Direction
245 245 237 233 232 232 239 241 253 249 241 242 277 328 332 5 37 125 159 145 128 136 142 149 147 144 141 135 130 127 124 120 116 112 109 106 102 99 96 92 89 86 84 82 81 79 77 76 75
256 241 235 232 232 233 237 233 244 245 238 50 22 2 352 73 84 115 145 133 133 136 143 148 147 145 141 136 133 131 127 124 121 117 112 108 105 102 99 95 91 89 86 84 82 82 80 78 76
258 249 227 226 230 233 240 228 221 217 161 114 125 292 317 99 116 131 134 133 135 138 144 145 147 145 142 138 136 134 131 128 125 121 116 112 109 106 102 98 95 92 90 89 85 83 81 79 76
241 227 239 239 239 237 249 259 212 152 161 155 168 150 96 55 105 125 131 137 136 138 139 146 149 146 144 141 139 137 135 132 128 124 121 118 114 109 105 102 99 97 94 92 89 85 82 79 76
238 232 229 239 245 249 255 261 216 179 185 183 194 178 103 74 102 122 137 138 138 136 138 148 150 147 146 144 142 140 138 136 132 128 126 122 118 113 110 107 102 99 97 95 91 87 83 80 75
222 227 230 235 242 244 249 253 241 203 204 207 201 184 134 125 122 138 142 138 138 136 139 147 151 149 148 146 145 143 142 139 135 132 129 125 122 120 117 111 107 102 98 95 92 88 84 80 73
229 238 243 246 246 244 241 229 222 213 210 214 200 173 144 144 135 142 141 139 137 138 140 146 150 150 150 148 147 147 145 141 138 135 132 129 128 126 120 115 112 108 103 98 93 90 85 80 75
232 252 249 245 249 251 253 245 227 214 214 213 203 178 162 146 140 142 141 139 139 141 144 150 153 151 150 148 148 147 145 143 141 136 132 131 133 130 127 122 118 113 108 104 99 95 92 89 87
236 238 242 239 244 251 249 242 240 227 220 233 244 115 130 137 143 145 145 142 147 150 151 156 156 155 154 152 150 146 145 143 140 136 137 136 139 136 132 122 124 122 117 113 110 111 114 113 116
217 231 236 245 254 260 256 238 229 220 206 214 134 96 118 138 151 157 160 160 161 161 159 159 159 158 156 155 150 151 149 147 148 145 150 159 155 143 131 131 133 135 134 133 139 152 156 163 173
217 232 241 248 260 269 271 255 240 225 214 203 166 144 146 154 162 168 170 168 166 164 162 161 160 158 156 151 157 159 153 158 163 158 169 166 141 131 129 138 138 148 155 161 170 181 211 147 125
236 237 238 247 257 266 268 263 245 237 229 208 170 156 158 167 175 178 176 171 167 167 166 161 159 158 155 155 162 159 155 166 166 165 171 161 144 148 150 153 163 170 171 165 177 190 150 118 118
235 241 243 246 253 257 264 261 252 242 240 232 183 162 168 176 181 182 178 170 167 170 169 164 162 161 158 159 163 163 160 164 161 164 173 155 146 158 156 162 161 167 155 161 191 168 133 126 102
241 244 247 250 247 247 250 254 251 241 233 229 197 179 178 182 182 181 180 174 174 174 171 166 165 163 160 162 163 164 161 161 160 162 169 157 151 160 161 159 154 155 152 161 167 140 127 118 100
251 252 250 245 244 240 244 247 240 237 226 222 210 195 190 189 185 186 185 180 175 174 171 169 169 166 164 165 168 164 158 158 158 161 167 163 158 160 164 154 151 155 155 155 148 117 101 104 106
245 243 242 237 234 233 231 243 232 225 222 221 218 207 200 197 191 188 186 181 174 170 172 172 172 170 168 167 169 162 162 161 160 161 167 169 165 161 162 152 156 157 151 144 134 122 118 132 146
228 232 234 235 226 227 227 241 233 220 219 219 217 213 204 202 197 190 185 181 176 172 171 172 172 173 170 167 169 164 163 163 164 162 166 172 170 164 158 157 159 154 147 148 149 140 145 149 136
217 227 234 233 223 223 229 236 235 226 219 217 217 214 206 201 201 192 185 181 177 172 170 171 172 173 167 165 167 166 166 167 167 166 167 170 171 166 160 159 163 155 150 157 155 158 154 145 148
239 241 244 243 233 226 233 236 233 230 225 220 219 215 211 204 196 192 185 177 173 170 169 170 173 175 170 173 176 178 180 175 173 169 169 170 171 168 165 164 166 160 161 169 171 161 157 166 149
242 245 250 257 247 235 239 244 240 231 226 222 224 221 214 208 195 191 184 177 175 173 173 172 175 177 177 178 179 177 170 171 170 167 172 174 174 172 173 167 167 165 165 173 178 158 152 172 158
240 240 245 251 264 262 260 252 241 234 232 226 224 224 219 211 200 191 185 179 176 176 176 177 178 179 180 173 168 164 161 166 175 181 183 182 177 175 173 173 168 170 168 177 182 167 164 176 197
241 241 250 251 249 247 233 255 238 226 227 225 222 221 220 218 208 195 186 181 179 179 177 177 177 177 178 173 176 176 179 183 187 181 179 179 180 178 175 175 174 174 173 175 180 175 171 167 186
245 246 252 255 252 255 239 249 247 221 223 221 217 215 215 215 209 199 190 182 179 175 174 175 174 176 177 178 180 181 185 184 171 170 175 182 186 185 180 179 178 177 177 177 177 175 178 175 177
246 242 257 261 253 245 232 233 252 221 220 215 214 212 209 208 207 202 190 179 176 172 171 173 175 177 177 180 182 185 186 180 175 177 180 183 184 187 186 183 182 181 179 179 179 180 181 184 184
226 194 202 201 215 237 220 225 240 229 222 212 206 206 204 202 199 194 187 179 174 171 172 174 177 179 179 181 185 188 189 186 185 181 181 180 182 187 190 184 183 182 179 178 176 178 182 182 185
222 200 207 203 207 229 210 227 235 227 230 211 201 200 198 197 195 191 186 180 173 172 173 176 179 180 180 182 186 187 186 188 189 183 179 182 184 185 182 182 182 180 177 177 175 176 180 180 187
211 214 232 270 269 256 225 235 237 225 221 208 200 198 196 195 189 184 178 175 171 171 175 177 179 180 180 182 182 183 184 184 186 182 175 178 176 175 176 179 179 177 176 175 172 176 179 178 187
227 214 206 215 222 234 236 230 226 200 206 207 202 198 195 191 186 179 174 174 172 172 173 174 177 180 178 178 180 182 182 183 181 178 178 173 170 166 171 176 176 175 174 173 170 170 174 176 183
204 204 208 212 233 231 244 243 218 202 198 200 200 198 190 186 182 176 168 166 163 161 166 170 174 172 173 175 175 174 177 177 176 178 176 169 166 164 169 172 172 173 174 172 169 171 172 177 180
217 204 199 212 234 240 254 266 300 276 214 199 191 191 185 179 173 166 158 152 152 158 163 166 169 170 172 171 168 171 169 170 173 175 170 164 163 163 163 165 167 170 170 169 170 173 172 176 183